Find Local Weather

World > North America > United States > Illinois

Barrington, Illinois Regional Weather

Lat: 42.15N, Lon: 88.13W
Wx Zone: ILZ006
Warning FLW WEATHER ALERT - (More Info. Click Here) Warning
Feedback
Expires:201901201600;;651942
ASUS43 KLOT 201507
RWRIL 

ILLINOIS REGIONAL WEATHER ROUNDUP
NATIONAL WEATHER SERVICE CHICAGO/ROMEOVILLE IL
900 AM CST SUN JAN 20 2019

NOTE: "FAIR" INDICATES FEW OR NO CLOUDS BELOW 12,000 FEET WITH NO
SIGNIFICANT WEATHER AND/OR OBSTRUCTIONS TO VISIBILITY.

* THESE STATIONS ARE NOT UNDER NWS QUALITY CONTROL. THEY ALSO MAY NOT
  REPORT WEATHER SUCH AS PRECIPITATION OR FOG.


ILZ005-006-012>014-019>023-201600-
NORTHEAST ILLINOIS
  
CITY           SKY/WX    TMP DP  RH WIND       PRES   REMARKS
CHICAGO-OHARE  FAIR       7  -2  66 NW15      30.26R WCI -10          
CHICAGO-MIDWAY FAIR       9  -1  64 NW16      30.26R WCI  -8          
AURORA         FAIR       3  -6  66 N10       30.28R WCI -12          
LANSING*       LGT SNOW  10   3  74 CALM      30.26R                  
JOLIET*        FAIR      10  -1  60 N13       30.28R WCI  -5          
WAUKEGAN       FAIR       7  -6  55 NW9G21    30.27R WCI  -7          
DUPAGE AIRPORT FAIR       7  -4  60 N13       30.27R WCI  -9          
KANKAKEE*      CLOUDY    11   0  62 CALM      30.29R                  
WHEELING       FAIR       8  -4  58 NW14G24   30.29R WCI  -8          
MORRIS*        CLOUDY     5  -4  67 N5        30.29R WCI  -4          
ROMEOVILLE*    FAIR       8  -1  65 N10       30.28R WCI  -6          
NORTHERLY ISL    N/A     13   7  77 NW12        N/A  WCI  -1          
$$


SKY/WX - Weather  TMP - Temperature  DP - Dew Point  RH - Relative Humidity
WIND - Wind Direction/Speed PRES - Barometric Pressure